When you browse on this site, cookies collect data to enhance your experience and personalize the content and advertising you see.
Visit our Privacy Policy to learn more. By continuing to use the site, you agree to this use of cookies and data.
  • In Österreich
  • Länderverzeichnis
  • Für 7 Tage
  • Wassertemperatur
  • Satellitenkarten
  • Wetterkarte
  • News
  • Widgets
  • user-avatar
    Anmelden

    Stündliche Wetter Stratford

    Heute, 19 Februar, Dienstag

    Zeit Temperatur Niederschläge Wind Luftdruck Luftfeuchtigkeit
    00:00 -8°C° 0 mm 6 m/S 769 mmHg 60%
    01:00 -8°C° 0 mm 5 m/S 770 mmHg 59%
    02:00 -8°C° 0 mm 5 m/S 770 mmHg 59%
    03:00 -8°C° 0 mm 5 m/S 771 mmHg 58%
    04:00 -8°C° 0 mm 5 m/S 771 mmHg 58%
    05:00 -8°C° 0 mm 5 m/S 772 mmHg 58%
    06:00 -8°C° 0 mm 4 m/S 772 mmHg 59%
    07:00 -8°C° 0 mm 4 m/S 773 mmHg 59%
    08:00 -7°C° 0 mm 4 m/S 773 mmHg 55%
    09:00 -7°C° 0 mm 4 m/S 774 mmHg 50%
    10:00 -5°C° 0 mm 4 m/S 774 mmHg 46%
    11:00 -4°C° 0 mm 3 m/S 774 mmHg 43%
    12:00 -2°C° 0 mm 3 m/S 774 mmHg 40%
    13:00 -1°C° 0 mm 3 m/S 774 mmHg 37%
    14:00 -1°C° 0 mm 3 m/S 774 mmHg 38%
    15:00 0°C° 0 mm 3 m/S 774 mmHg 38%
    16:00 +1°C° 0 mm 2 m/S 774 mmHg 39%
    17:00 -1°C° 0 mm 3 m/S 775 mmHg 43%
    18:00 -2°C° 0 mm 3 m/S 775 mmHg 47%
    19:00 -2°C° 0 mm 3 m/S 776 mmHg 51%
    20:00 -4°C° 0 mm 3 m/S 776 mmHg 53%
    21:00 -5°C° 0 mm 3 m/S 775 mmHg 55%
    22:00 -5°C° 0 mm 3 m/S 775 mmHg 57%
    23:00 -4°C° 0 mm 2 m/S 776 mmHg 56%

    Morgen, 20 Februar, Mittwoch

    Zeit Temperatur Niederschläge Wind Luftdruck Luftfeuchtigkeit
    00:00 -4°C° 0 mm 2 m/S 776 mmHg 55%
    01:00 -4°C° 0 mm 2 m/S 776 mmHg 54%
    02:00 -4°C° 0 mm 2 m/S 776 mmHg 54%
    03:00 -5°C° 0 mm 2 m/S 776 mmHg 54%
    04:00 -5°C° 0 mm 2 m/S 776 mmHg 55%
    05:00 -3°C° 0 mm 1 m/S 776 mmHg 54%
    06:00 -2°C° 0 mm 1 m/S 776 mmHg 54%
    07:00 -3°C° 0 mm 0 m/S 776 mmHg 54%
    08:00 -3°C° 0 mm 0 m/S 776 mmHg 51%
    09:00 -1°C° 0 mm 1 m/S 776 mmHg 48%
    10:00 0°C° 0 mm 1 m/S 776 mmHg 45%
    11:00 -2°C° 0 mm 2 m/S 775 mmHg 45%
    12:00 -1°C° 0 mm 2 m/S 775 mmHg 45%
    13:00 -1°C° 0 mm 3 m/S 774 mmHg 45%
    14:00 -1°C° 0 mm 3 m/S 774 mmHg 51%
    15:00 -1°C° 0 mm 3 m/S 773 mmHg 57%
    16:00 -1°C° 0 mm 3 m/S 772 mmHg 63%
    17:00 -1°C° 0.1 mm 3 m/S 772 mmHg 69%
    18:00 -1°C° 0.1 mm 3 m/S 771 mmHg 75%
    19:00 -1°C° 0.1 mm 3 m/S 771 mmHg 80%
    20:00 -1°C° 0.2 mm 4 m/S 770 mmHg 84%
    21:00 -1°C° 0.2 mm 4 m/S 769 mmHg 87%
    22:00 0°C° 0.2 mm 5 m/S 767 mmHg 91%
    23:00 0°C° 3.2 mm 4 m/S 766 mmHg 93%

    übermorgen, 21 Februar, Donnerstag

    Zeit Temperatur Niederschläge Wind Luftdruck Luftfeuchtigkeit
    00:00 +2°C° 3.2 mm 3 m/S 764 mmHg 95%
    01:00 +3°C° 3.2 mm 2 m/S 763 mmHg 97%
    02:00 +3°C° 1.2 mm 3 m/S 761 mmHg 97%
    03:00 +3°C° 1.2 mm 3 m/S 760 mmHg 97%
    04:00 +4°C° 1.2 mm 4 m/S 758 mmHg 98%
    05:00 +4°C° 0.3 mm 4 m/S 757 mmHg 98%
    06:00 +5°C° 0.3 mm 4 m/S 757 mmHg 98%
    07:00 +5°C° 0.3 mm 4 m/S 756 mmHg 98%
    08:00 +6°C° 0 mm 4 m/S 756 mmHg 94%
    09:00 +7°C° 0 mm 5 m/S 756 mmHg 90%
    10:00 +8°C° 0 mm 5 m/S 756 mmHg 85%
    11:00 +9°C° 0 mm 6 m/S 756 mmHg 77%
    12:00 +10°C° 0 mm 7 m/S 756 mmHg 68%
    13:00 +11°C° 0 mm 7 m/S 756 mmHg 59%
    14:00 +10°C° 0 mm 7 m/S 757 mmHg 59%
    15:00 +9°C° 0 mm 6 m/S 757 mmHg 59%
    16:00 +8°C° 0 mm 6 m/S 757 mmHg 59%
    17:00 +7°C° 0 mm 6 m/S 758 mmHg 62%
    18:00 +5°C° 0 mm 6 m/S 759 mmHg 65%
    19:00 +5°C° 0 mm 5 m/S 760 mmHg 68%
    20:00 +3°C° 0 mm 6 m/S 761 mmHg 68%
    21:00 +2°C° 0 mm 6 m/S 762 mmHg 69%
    22:00 +1°C° 0 mm 6 m/S 763 mmHg 69%
    23:00 +1°C° 0 mm 6 m/S 763 mmHg 69%

    22 Februar, Freitag

    Zeit Temperatur Niederschläge Wind Luftdruck Luftfeuchtigkeit
    00:00 +1°C° 0 mm 6 m/S 764 mmHg 70%
    01:00 +1°C° 0 mm 5 m/S 764 mmHg 70%
    02:00 0°C° 0 mm 5 m/S 765 mmHg 70%
    03:00 0°C° 0 mm 4 m/S 765 mmHg 70%
    04:00 0°C° 0 mm 4 m/S 766 mmHg 71%
    05:00 0°C° 0 mm 4 m/S 766 mmHg 71%
    06:00 -1°C° 0 mm 4 m/S 767 mmHg 71%
    07:00 -1°C° 0 mm 4 m/S 768 mmHg 71%
    08:00 +1°C° 0 mm 3 m/S 769 mmHg 67%
    09:00 +2°C° 0 mm 3 m/S 769 mmHg 63%
    10:00 +3°C° 0 mm 3 m/S 770 mmHg 59%
    11:00 +3°C° 0 mm 3 m/S 770 mmHg 57%
    12:00 +4°C° 0 mm 3 m/S 770 mmHg 56%
    13:00 +5°C° 0 mm 3 m/S 770 mmHg 55%
    14:00 +5°C° 0 mm 3 m/S 770 mmHg 56%
    15:00 +5°C° 0 mm 3 m/S 770 mmHg 57%
    16:00 +6°C° 0 mm 2 m/S 770 mmHg 58%
    17:00 +5°C° 0 mm 2 m/S 771 mmHg 62%
    18:00 +4°C° 0 mm 2 m/S 771 mmHg 66%
    19:00 +4°C° 0 mm 2 m/S 772 mmHg 70%
    20:00 +3°C° 0 mm 2 m/S 772 mmHg 71%
    21:00 +3°C° 0 mm 2 m/S 772 mmHg 71%
    22:00 +3°C° 0 mm 1 m/S 773 mmHg 71%
    23:00 +3°C° 0 mm 1 m/S 773 mmHg 72%

    23 Februar, Samstag

    Zeit Temperatur Niederschläge Wind Luftdruck Luftfeuchtigkeit
    00:00 +3°C° 0 mm 1 m/S 773 mmHg 72%
    01:00 +2°C° 0 mm 1 m/S 773 mmHg 73%
    02:00 +2°C° 0 mm 1 m/S 772 mmHg 73%
    03:00 +2°C° 0 mm 1 m/S 772 mmHg 73%
    04:00 +2°C° 0 mm 1 m/S 772 mmHg 73%
    05:00 +2°C° 0 mm 1 m/S 772 mmHg 72%
    06:00 +2°C° 0 mm 1 m/S 772 mmHg 71%
    07:00 +1°C° 0 mm 0 m/S 772 mmHg 70%
    08:00 +2°C° 0 mm 0 m/S 772 mmHg 65%
    09:00 +3°C° 0 mm 0 m/S 773 mmHg 59%
    10:00 +5°C° 0 mm 0 m/S 773 mmHg 53%
    11:00 +6°C° 0 mm 1 m/S 772 mmHg 53%
    12:00 +6°C° 0 mm 2 m/S 771 mmHg 53%
    13:00 +6°C° 0 mm 2 m/S 771 mmHg 53%
    14:00 +6°C° 0 mm 2 m/S 770 mmHg 55%
    15:00 +6°C° 0 mm 2 m/S 770 mmHg 56%
    16:00 +6°C° 0 mm 2 m/S 769 mmHg 58%
    17:00 +6°C° 0 mm 2 m/S 769 mmHg 63%
    18:00 +5°C° 0 mm 2 m/S 769 mmHg 69%
    19:00 +4°C° 0 mm 2 m/S 769 mmHg 75%
    20:00 +4°C° 0 mm 2 m/S 768 mmHg 76%
    21:00 +4°C° 0 mm 2 m/S 768 mmHg 78%
    22:00 +4°C° 0 mm 2 m/S 767 mmHg 79%
    23:00 +4°C° 0.2 mm 2 m/S 766 mmHg 82%

    24 Februar, Sonntag

    Zeit Temperatur Niederschläge Wind Luftdruck Luftfeuchtigkeit
    00:00 +3°C° 0.2 mm 3 m/S 765 mmHg 84%
    01:00 +3°C° 0.2 mm 3 m/S 764 mmHg 86%
    02:00 +3°C° 2 mm 3 m/S 763 mmHg 89%
    03:00 +3°C° 2 mm 4 m/S 762 mmHg 92%
    04:00 +3°C° 2 mm 5 m/S 760 mmHg 95%
    05:00 +3°C° 4.2 mm 5 m/S 759 mmHg 95%
    06:00 +3°C° 4.2 mm 5 m/S 758 mmHg 95%
    07:00 +3°C° 4.2 mm 6 m/S 757 mmHg 95%
    08:00 +5°C° 2.5 mm 5 m/S 756 mmHg 95%
    09:00 +5°C° 2.5 mm 5 m/S 756 mmHg 96%
    10:00 +6°C° 2.5 mm 5 m/S 755 mmHg 96%
    11:00 +6°C° 1 mm 4 m/S 754 mmHg 96%
    12:00 +7°C° 1 mm 3 m/S 753 mmHg 97%
    13:00 +8°C° 1 mm 1 m/S 752 mmHg 97%
    14:00 +8°C° 0.1 mm 1 m/S 751 mmHg 97%
    15:00 +9°C° 0.1 mm 1 m/S 750 mmHg 98%
    16:00 +9°C° 0.1 mm 1 m/S 749 mmHg 98%
    17:00 +8°C° 0 mm 2 m/S 748 mmHg 98%
    18:00 +9°C° 0 mm 2 m/S 748 mmHg 98%
    19:00 +9°C° 0 mm 2 m/S 748 mmHg 98%
    20:00 +8°C° 0 mm 4 m/S 748 mmHg 89%
    21:00 +9°C° 0 mm 5 m/S 748 mmHg 79%
    22:00 +9°C° 0 mm 6 m/S 748 mmHg 70%
    23:00 +8°C° 0 mm 7 m/S 748 mmHg 69%
    Mehr zeigen